Wind_Speed
35 36 36 35 34 33 32 31 29 29 29 29 29 28 28 29 28 27 27 27 25 21 20 20 20 20 20 20 20 18 16 14 13 12 11 10 9 7 6 4 3 2 3 5 7 8 9 9 10 11 12 13 14 16 18 20 22 23 24 26 27 27 30 33 37 45 49 47 47 49 50 51 53 53 55 57 58 58 57 57 58 58 58 58 59
30 32 32 32 32 31 30 29 29 28 28 28 28 28 28 29 28 27 27 25 23 20 21 22 22 22 22 22 20 18 16 14 14 13 12 10 9 7 5 4 3 3 4 6 7 8 9 10 10 11 12 14 16 17 20 21 23 24 25 26 27 28 29 32 36 42 49 50 50 51 51 52 53 53 54 55 58 60 60 59 58 58 58 58 58
24 25 27 28 28 28 27 27 26 25 26 27 28 28 28 28 28 28 26 24 22 22 22 23 23 24 23 22 19 18 16 15 15 13 12 10 8 6 5 4 4 4 5 7 8 9 10 11 11 12 13 15 17 19 21 23 24 25 26 27 28 29 29 31 34 39 46 51 52 52 52 53 53 53 53 53 54 57 59 59 58 59 59 58 58
20 21 22 24 24 24 23 23 23 24 26 27 28 28 28 28 28 27 25 24 23 24 24 24 25 25 23 21 19 18 17 16 15 13 11 9 8 6 5 4 5 6 7 8 9 10 11 12 13 13 14 16 18 21 22 24 25 26 27 28 29 30 30 31 33 36 41 48 51 52 52 53 53 53 52 53 54 55 56 57 58 59 59 58 57
18 18 19 20 20 20 20 21 23 24 26 26 27 27 28 28 28 26 25 25 25 26 26 27 26 24 22 21 20 19 18 16 14 13 11 9 8 7 6 5 6 7 8 9 10 11 12 13 14 15 16 18 20 22 24 25 26 26 28 29 30 31 32 33 34 36 39 44 49 51 52 52 53 52 51 52 55 56 56 57 58 59 60 61 59
17 17 18 19 19 20 20 21 23 24 25 25 27 27 28 28 27 26 26 26 27 27 28 28 26 24 23 21 20 19 17 16 14 12 11 9 8 7 6 6 7 8 9 10 10 11 13 14 15 17 18 20 22 24 25 26 26 27 28 30 31 32 34 34 35 37 39 42 46 49 52 52 53 54 52 51 53 55 56 58 61 61 61 64 64
17 18 18 19 20 21 22 23 24 25 26 27 28 28 27 27 26 26 27 27 28 29 29 28 26 25 23 22 20 18 17 15 14 12 11 9 8 7 7 7 8 9 9 10 11 12 14 15 17 18 20 22 23 25 26 26 27 28 29 31 32 33 34 35 36 38 40 42 45 48 51 53 53 53 53 52 52 53 53 55 59 62 62 64 66
18 19 19 20 21 22 23 24 25 26 27 27 27 26 25 26 27 28 29 29 30 30 29 28 27 26 24 22 20 18 17 15 13 12 11 9 9 8 7 8 8 9 10 11 12 13 15 16 18 19 21 23 24 25 26 27 28 29 30 31 32 33 35 36 37 39 41 43 45 47 50 53 53 53 53 53 53 55 53 51 55 60 61 62 64
18 20 21 22 23 24 25 26 26 27 27 26 25 25 26 27 28 29 30 31 31 30 29 28 26 25 24 22 20 19 17 15 14 12 11 9 9 8 8 9 9 10 10 11 12 14 15 17 18 20 22 23 24 26 27 28 29 30 31 31 32 33 35 37 38 40 42 43 45 46 49 53 52 51 52 52 51 53 53 52 53 56 58 61 63
17 19 21 21 22 23 23 25 26 27 26 25 25 26 27 28 30 31 32 31 31 30 29 27 25 24 23 22 21 19 17 16 14 12 11 10 9 9 9 9 9 10 11 12 13 15 16 18 19 21 22 23 25 26 27 28 29 30 30 31 32 34 36 38 39 39 41 43 44 44 46 50 51 47 48 49 48 49 51 51 52 55 57 59 62
18 20 21 22 22 22 23 24 25 25 25 26 27 27 29 30 31 32 32 32 31 30 29 27 26 24 23 21 20 19 17 15 14 12 11 10 9 10 10 10 10 10 11 13 14 15 17 18 20 21 22 24 25 26 27 28 28 29 29 30 31 33 34 37 39 39 40 42 43 42 41 45 48 46 45 47 47 47 48 49 50 53 54 55 59
20 21 22 22 23 23 24 24 24 25 26 27 28 29 30 32 32 33 33 32 32 31 29 28 27 25 24 22 20 19 17 16 14 12 11 10 10 10 10 10 11 11 12 14 15 16 17 19 20 21 23 23 25 26 27 28 28 29 30 31 32 32 32 34 36 38 39 40 42 42 38 40 44 45 44 44 45 46 47 48 48 49 51 52 55
21 22 22 22 23 24 25 26 26 27 28 28 29 31 32 33 34 33 34 33 32 31 30 29 27 26 24 23 21 19 17 16 14 12 11 11 10 10 11 11 12 12 14 15 16 17 18 19 20 21 23 24 25 26 27 28 29 29 31 32 32 32 32 33 33 35 36 37 39 41 39 37 41 43 42 40 41 43 45 46 45 46 48 51 53
23 23 23 23 24 25 26 28 28 29 30 30 31 33 34 35 35 35 35 34 33 32 31 29 28 26 24 23 21 19 17 16 14 12 11 11 10 11 11 12 13 13 15 16 17 18 19 20 21 22 23 24 25 26 28 29 30 31 32 32 33 33 33 34 35 34 34 34 36 39 40 38 39 42 41 38 37 39 40 41 42 42 45 48 51
25 25 26 26 27 28 29 30 30 31 32 33 34 35 36 36 37 36 36 35 34 32 31 30 28 26 25 23 21 19 17 15 14 12 11 11 11 11 12 13 13 14 15 16 17 19 20 21 22 23 23 24 26 27 28 30 30 31 33 33 34 35 35 35 36 35 35 35 36 38 40 40 39 40 39 36 34 34 34 35 37 38 41 46 48
26 27 28 29 29 30 31 32 33 33 34 35 36 38 38 38 38 38 37 35 34 33 31 30 28 26 25 23 21 19 17 15 13 12 11 11 11 12 13 14 14 15 15 16 18 19 21 22 23 23 24 25 26 27 28 29 30 32 34 35 36 36 35 35 36 36 37 37 36 36 38 38 38 37 36 33 31 30 32 33 35 37 40 44 47
27 28 30 31 31 32 33 34 34 35 36 38 39 40 40 40 40 39 38 37 35 34 32 30 28 26 24 22 20 18 16 15 13 12 11 11 12 12 14 15 15 15 16 17 19 20 21 23 23 24 24 25 26 27 28 29 31 32 34 36 37 37 37 37 38 38 38 37 36 36 37 37 37 36 34 31 27 27 29 33 36 37 39 43 46
27 29 31 32 33 34 35 35 36 37 38 40 40 41 41 41 40 39 38 37 35 34 32 30 28 26 24 22 20 18 16 15 13 11 10 11 12 13 15 15 15 16 17 18 19 20 21 22 23 24 25 25 26 26 27 29 31 32 34 36 38 38 38 39 40 40 39 38 37 37 37 37 37 36 34 30 26 25 26 30 34 35 37 41 44
26 28 31 32 33 34 35 36 37 38 39 40 41 42 42 41 40 39 37 36 35 33 32 30 29 27 24 22 20 18 16 14 12 11 10 11 13 14 16 17 17 18 19 19 19 20 21 22 23 23 24 24 25 26 27 28 30 31 33 35 37 38 38 39 40 41 41 41 40 40 39 38 37 36 34 32 30 29 28 28 31 33 35 39 42
25 27 29 31 33 34 35 36 37 38 39 41 42 42 42 41 40 39 38 37 35 34 32 30 28 26 23 21 19 18 16 13 12 11 10 11 13 15 16 18 19 20 20 20 20 20 21 21 22 22 23 24 24 25 26 27 28 30 31 32 35 36 38 39 39 39 41 41 41 41 41 40 38 36 35 34 34 34 33 31 30 31 33 37 39
26 27 28 30 33 34 35 36 37 38 40 41 42 42 42 42 41 40 39 38 36 34 32 30 28 25 23 21 19 18 15 13 11 10 11 11 12 14 17 20 21 21 21 21 20 20 20 20 21 21 22 23 23 24 25 26 26 27 28 30 32 33 35 37 37 38 39 40 40 40 40 39 38 37 36 37 37 37 37 35 32 30 31 33 36
26 28 29 31 32 34 35 36 37 39 41 42 43 44 43 43 42 41 39 38 36 34 32 30 28 26 24 22 20 17 15 12 11 11 11 11 12 14 18 22 23 23 22 21 20 20 20 20 20 21 21 21 22 23 24 24 24 25 27 28 29 31 32 33 35 36 37 38 39 39 39 38 38 38 39 40 40 40 40 39 36 33 31 29 30
26 28 29 31 32 34 35 36 38 40 42 44 45 45 44 43 42 40 39 38 36 34 33 31 29 27 25 22 20 17 15 13 12 12 12 12 14 17 20 23 24 24 22 21 20 20 20 20 20 20 20 21 21 22 22 22 23 25 26 27 28 29 30 31 33 34 36 37 37 37 37 37 38 39 41 42 42 42 40 38 37 36 34 32 30
25 27 28 30 31 33 35 36 39 41 43 45 45 45 44 43 42 41 39 38 36 35 34 32 30 28 25 23 20 18 15 14 13 13 13 14 16 19 22 24 24 23 22 21 20 20 19 19 19 19 19 20 20 19 20 21 23 24 25 26 27 28 29 30 31 32 34 35 35 35 35 36 38 40 41 42 42 40 38 36 35 34 34 33 31
23 25 27 29 30 32 34 36 39 41 43 45 46 46 45 44 43 42 40 39 38 36 35 33 30 28 25 23 21 18 16 15 15 15 15 16 18 21 24 25 24 22 21 20 20 20 19 19 19 19 19 18 18 18 19 20 22 23 24 25 26 26 27 28 30 31 32 33 33 33 34 35 37 38 39 39 39 38 37 36 35 34 34 34 33
21 23 26 27 29 31 33 36 39 41 44 46 46 46 46 45 44 43 42 40 39 37 35 33 31 29 26 24 21 19 17 16 15 16 17 18 20 23 24 24 23 21 20 20 20 19 19 18 18 18 18 18 18 19 19 20 21 22 23 24 24 25 26 27 29 30 30 31 31 32 33 34 36 37 37 38 37 36 35 36 36 35 35 35 35
20 22 24 25 28 30 32 36 39 42 45 47 47 47 46 45 44 44 43 41 40 38 37 34 32 30 27 24 21 19 17 16 17 19 19 20 23 25 24 23 22 21 20 20 19 19 18 18 17 17 17 18 19 19 19 19 20 21 22 23 24 24 25 26 26 27 28 29 30 31 32 33 35 36 36 37 36 34 33 33 34 35 35 34 33
20 21 23 25 27 29 32 35 39 42 46 48 48 48 47 46 46 44 43 42 41 40 38 36 33 30 27 23 21 19 18 19 21 22 21 22 24 25 24 23 22 22 21 20 19 18 18 17 17 17 17 17 18 18 18 18 19 20 22 22 23 23 24 24 24 25 26 28 29 30 32 33 34 35 36 36 36 34 33 32 32 32 33 32 30
20 21 23 24 26 28 31 34 38 42 46 48 49 49 48 47 46 44 42 41 40 39 38 35 32 29 26 23 22 20 20 22 24 23 23 24 25 25 24 23 23 22 21 20 19 18 18 17 17 17 16 17 17 18 18 18 18 19 20 21 22 22 23 23 24 25 26 27 28 30 31 32 33 34 35 35 35 34 33 32 31 31 30 30 28
20 21 23 24 26 27 30 33 37 42 46 49 50 49 49 47 46 44 42 41 40 38 36 33 30 28 27 25 23 21 22 23 24 23 23 25 26 26 26 25 23 22 21 19 18 17 17 17 17 16 16 17 18 19 19 19 19 19 19 21 22 22 22 22 23 25 26 26 27 28 30 32 33 34 35 35 35 34 33 32 31 29 28 28 27
20 21 22 23 25 27 29 32 36 40 45 49 50 50 50 48 47 45 44 42 41 38 35 33 31 30 29 27 24 22 23 25 25 24 25 27 29 28 27 25 23 22 20 19 17 17 16 16 17 17 17 18 19 20 20 20 20 20 20 20 21 21 22 22 24 24 25 25 26 27 29 30 31 32 33 34 34 33 33 32 31 28 26 26 26
19 20 21 23 25 27 29 32 35 40 45 48 51 51 51 50 49 47 45 44 42 39 37 36 35 33 30 28 25 23 25 28 28 26 27 29 30 29 27 25 23 22 21 19 17 16 16 16 17 17 18 19 19 19 20 20 20 20 20 21 21 21 22 23 24 24 24 25 25 26 27 28 30 31 31 32 32 32 32 31 30 28 26 24 24
19 20 21 22 24 27 29 31 35 39 44 48 51 52 52 52 51 49 48 46 44 42 40 39 37 34 32 29 26 26 29 31 30 28 29 31 31 29 26 24 22 22 21 18 17 17 17 17 17 17 18 19 19 19 20 20 19 20 20 20 21 21 22 23 23 23 23 24 24 25 25 27 28 28 29 30 30 29 30 29 28 27 25 24 23
19 20 21 22 24 27 29 31 34 38 43 48 51 53 53 53 52 51 50 49 47 46 44 42 39 36 34 31 29 30 33 33 31 30 31 32 30 28 26 23 22 22 21 18 17 17 17 17 17 18 18 19 19 19 20 19 19 19 19 19 20 21 21 21 22 22 23 23 24 24 25 25 26 26 27 29 28 27 27 27 26 25 24 23 22
19 20 21 23 25 27 28 31 34 37 41 46 50 53 53 53 52 52 51 51 50 49 47 45 41 38 36 34 33 34 35 34 32 32 32 32 30 28 25 23 23 22 20 18 17 18 18 17 17 18 18 19 19 20 19 19 19 19 19 19 19 20 20 21 21 22 22 23 24 24 25 25 25 24 25 27 27 26 25 25 24 23 22 21 20
19 20 21 23 25 26 28 31 33 36 40 44 49 52 53 53 53 52 51 51 50 49 47 45 42 40 39 38 36 36 36 35 34 34 33 31 30 28 25 24 23 22 20 18 18 18 18 17 17 18 18 18 19 19 19 19 18 18 18 19 19 20 20 20 21 21 22 23 24 25 25 25 24 23 23 25 25 23 21 21 21 20 19 18 18
20 21 21 23 25 26 28 30 33 35 39 43 48 51 53 54 54 53 52 52 51 50 49 47 45 44 43 40 37 36 37 37 36 35 33 32 30 27 25 24 23 22 20 19 18 18 17 17 17 18 18 18 19 19 19 18 18 17 16 17 18 19 20 20 20 20 21 22 23 25 25 25 24 23 22 24 25 22 18 18 18 17 16 16 16
22 22 22 23 25 26 28 30 33 35 38 42 47 51 53 54 54 54 53 53 52 52 52 51 49 47 45 41 38 37 38 39 38 37 35 32 30 27 25 24 23 22 20 19 19 18 18 18 18 18 18 18 18 18 18 18 17 17 16 16 17 18 18 18 18 18 19 20 22 23 24 24 23 22 21 23 24 22 17 16 16 15 14 14 14
23 23 23 23 25 27 28 30 33 35 38 41 45 50 53 55 55 55 55 55 54 55 54 54 52 49 46 42 39 38 39 40 39 37 35 32 28 26 25 24 23 21 21 20 19 18 18 18 18 18 18 18 17 17 17 17 16 16 16 16 16 16 17 17 17 17 17 19 20 21 23 23 22 21 20 21 22 21 17 14 13 13 13 13 13
23 23 23 24 25 27 29 31 33 35 37 40 44 48 52 55 56 56 56 56 56 56 56 56 55 51 47 44 41 40 41 41 40 37 34 30 28 27 26 24 22 22 22 21 20 19 18 18 18 18 18 17 17 17 16 16 16 16 16 16 16 16 16 16 16 16 16 17 18 20 21 22 21 20 19 19 20 20 18 14 12 11 12 12 12
22 23 24 25 25 27 29 31 33 35 37 39 43 46 50 53 55 56 57 57 57 57 57 57 55 51 47 43 41 41 42 40 38 35 32 30 29 28 26 24 23 23 22 21 20 20 19 19 18 17 17 17 17 16 16 15 15 15 16 16 16 16 15 16 16 15 15 16 17 18 19 20 20 20 20 19 19 19 18 14 11 10 10 10 11
22 23 23 24 25 27 28 30 32 34 36 39 42 45 48 51 53 55 56 57 58 58 57 56 53 49 46 43 42 41 41 39 37 35 34 32 31 29 26 25 24 24 23 23 22 21 20 19 18 18 17 17 17 16 16 15 15 15 15 16 15 16 16 16 15 15 14 15 15 16 17 17 18 18 18 19 19 19 18 14 10 9 9 9 9
23 23 23 24 25 26 27 29 30 32 35 38 40 43 46 49 52 53 55 56 57 57 56 55 52 49 46 44 42 42 41 41 40 38 36 34 32 29 27 25 24 24 24 24 23 22 21 20 19 18 18 18 17 16 16 16 16 16 16 16 16 16 16 16 16 15 15 14 14 15 15 16 16 16 16 17 18 18 18 15 11 9 9 8 8
24 24 24 25 26 26 27 28 29 31 33 35 38 41 44 47 50 52 54 55 56 56 55 54 52 49 47 45 44 44 44 44 42 40 37 35 32 29 27 26 26 26 26 25 24 23 22 20 19 19 18 18 18 17 17 17 17 17 17 17 16 17 17 17 17 17 16 16 15 14 14 14 14 15 15 16 16 17 17 16 13 10 9 8 7
25 25 25 26 26 27 28 28 29 30 31 33 36 39 42 45 48 51 53 54 54 53 53 53 51 50 48 47 46 46 46 44 42 40 38 35 33 30 28 28 28 27 27 26 25 24 22 21 20 19 19 19 19 18 18 18 19 19 19 19 19 18 18 18 18 18 18 17 17 16 15 15 14 14 15 15 15 15 15 16 15 12 10 9 9
25 26 26 27 27 28 28 29 29 30 31 32 35 37 40 43 46 48 51 52 53 52 52 52 51 50 49 48 47 47 46 44 42 40 38 36 33 31 30 30 29 28 27 26 26 25 24 22 21 20 19 19 19 19 19 19 20 20 21 21 21 21 20 20 19 19 19 19 18 17 16 15 14 14 14 15 15 14 14 14 15 13 12 11 10
26 27 27 28 28 29 29 29 30 31 31 33 34 35 37 40 43 46 48 50 51 51 51 51 51 51 50 49 48 47 46 44 42 40 38 36 34 33 32 31 30 29 28 27 27 26 25 23 22 21 20 20 19 19 19 20 20 21 21 22 23 23 23 22 21 20 20 19 19 19 18 17 15 15 14 15 15 14 13 13 14 14 13 12 12
27 28 28 28 29 30 30 30 31 32 32 33 34 35 36 38 40 43 45 47 49 50 50 50 51 51 50 49 48 47 46 45 43 41 39 37 35 34 33 32 31 30 28 28 27 26 25 24 23 22 21 20 20 20 20 20 21 21 22 23 25 25 25 23 22 22 21 20 20 19 19 18 17 16 15 15 15 15 14 14 14 14 14 13 13
30 30 30 30 31 31 31 31 32 33 33 34 35 36 37 38 39 41 43 45 46 48 49 50 50 50 50 49 49 48 47 45 43 41 40 38 36 35 34 32 31 30 29 28 26 26 25 25 24 23 23 22 21 20 20 20 21 21 22 24 26 26 26 25 24 23 22 22 21 20 20 19 17 16 16 16 16 15 15 14 14 14 14 14 13
33 33 33 33 33 33 32 32 33 34 34 35 36 37 37 38 39 41 42 43 45 46 47 49 50 50 49 49 49 48 47 45 43 41 40 38 36 35 33 33 32 31 29 27 26 26 26 26 25 24 24 23 22 21 21 21 21 22 23 25 26 27 27 26 25 24 24 23 22 21 21 20 18 16 16 17 16 16 16 15 15 14 14 14 14
35 35 35 35 35 35 34 35 35 35 35 35 36 37 38 38 39 40 41 42 44 45 45 46 47 47 48 48 48 48 47 45 42 41 39 37 35 34 34 33 32 31 28 27 26 26 26 26 26 25 24 23 22 22 22 21 21 22 24 25 26 27 27 26 25 24 24 23 23 22 22 21 19 17 16 17 17 17 16 16 16 15 14 14 14
Wind_Direction
247 246 246 246 246 246 245 244 241 239 236 234 234 233 233 234 235 235 235 237 241 241 234 225 218 212 206 199 196 195 196 196 197 200 202 202 199 197 200 204 227 276 307 317 319 318 315 312 310 311 314 315 316 319 320 321 320 320 320 321 322 323 322 321 319 318 320 324 327 329 331 331 332 333 333 333 333 333 332 333 332 331 330 330 330
249 249 248 246 245 243 242 241 239 236 232 229 229 230 230 232 233 233 234 237 240 235 225 216 209 204 199 197 196 195 196 198 200 201 200 200 198 198 205 224 259 292 308 312 310 308 306 306 308 310 311 312 314 316 318 318 318 319 319 320 322 323 323 323 322 321 321 324 327 329 330 331 332 333 334 334 334 333 332 333 332 330 330 330 330
247 246 245 244 242 240 238 236 234 230 226 224 225 227 228 229 230 231 234 238 234 223 214 208 202 198 197 197 197 196 197 199 200 199 198 198 198 204 219 242 273 293 299 302 301 300 303 304 305 306 308 310 313 314 316 317 317 318 319 320 322 323 325 326 325 324 323 324 327 329 330 331 332 333 334 334 334 333 332 331 331 329 329 330 330
244 241 239 238 238 236 231 227 225 223 221 222 223 224 226 227 228 232 235 233 223 211 204 201 199 198 198 198 197 197 199 200 199 199 198 198 203 214 231 253 274 287 293 297 299 299 301 301 301 304 307 309 312 314 315 315 316 318 319 321 323 324 327 328 327 327 325 324 326 328 329 330 331 333 334 334 333 332 331 330 330 329 328 329 328
241 238 236 235 233 230 226 221 220 221 221 222 223 224 225 227 230 234 231 221 210 203 199 197 198 199 198 197 197 199 200 200 199 198 198 202 211 223 240 260 275 287 295 297 298 298 299 300 302 305 307 309 311 312 313 314 316 318 320 322 324 325 327 329 329 327 326 325 325 327 328 329 330 333 335 334 332 332 332 330 329 329 329 328 327
240 236 233 232 230 225 223 222 221 222 222 222 223 225 228 230 232 229 219 208 202 200 197 196 198 198 196 197 200 201 200 199 199 199 203 210 219 233 249 266 280 290 294 295 296 298 299 301 303 305 308 309 309 311 313 315 318 320 322 323 325 327 328 329 329 328 327 326 325 326 328 330 331 334 336 335 332 332 331 330 329 330 330 328 327
239 235 231 230 228 224 221 221 221 221 223 224 226 228 230 229 224 214 205 200 199 199 198 198 197 196 196 198 199 201 201 200 201 203 209 218 228 243 257 272 284 289 291 294 296 298 300 301 303 305 307 308 310 312 315 317 320 323 324 326 328 329 330 330 330 330 328 327 327 328 330 331 332 333 335 334 332 332 333 330 328 330 330 328 326
237 233 230 227 226 225 222 221 222 224 226 227 227 227 223 215 208 202 199 198 198 200 200 199 196 195 197 199 200 201 202 202 204 209 216 225 236 249 264 275 282 286 289 293 295 297 300 301 303 306 307 310 313 315 318 320 323 326 327 329 330 330 330 331 331 332 330 329 330 330 331 331 332 333 334 334 334 333 333 329 325 326 327 325 324
236 231 228 225 224 224 223 222 224 226 226 225 221 215 209 203 199 198 197 196 198 200 201 200 198 197 198 200 202 203 204 205 208 215 222 233 242 254 266 271 277 284 288 293 296 297 299 301 304 307 309 313 316 318 321 323 325 328 330 331 331 331 333 334 334 334 332 331 331 331 331 331 332 332 333 334 333 331 330 329 325 324 324 322 323
240 234 231 227 224 223 222 221 222 223 220 216 211 205 202 200 198 197 196 196 198 200 200 199 200 202 203 204 205 205 206 209 213 220 228 237 246 255 263 268 276 285 289 294 296 297 300 302 305 308 310 314 317 320 323 324 327 330 331 331 333 334 336 336 335 334 333 332 332 330 329 329 331 331 330 332 332 329 329 327 324 323 324 322 322
240 236 233 230 226 223 222 219 218 217 213 208 204 202 201 200 198 197 197 198 199 200 201 200 201 203 206 207 208 208 210 214 218 225 232 239 249 255 263 272 280 286 291 293 294 296 300 302 305 309 312 315 318 320 322 324 327 329 330 332 336 338 339 336 335 335 333 331 330 328 327 328 330 331 331 332 331 328 326 325 323 323 323 320 318
236 235 232 229 226 223 220 217 214 211 206 203 202 202 202 200 199 199 200 200 201 201 201 203 204 205 207 208 209 210 213 218 221 227 234 241 251 259 268 278 284 289 292 292 295 298 300 304 307 310 313 316 318 320 322 324 327 327 329 334 338 340 340 337 335 334 332 330 329 329 329 328 330 332 332 330 328 326 325 324 322 320 318 317 315
234 232 229 227 223 219 216 213 210 207 204 204 204 203 203 202 202 203 203 203 203 202 203 205 206 208 209 209 211 212 216 222 225 230 237 245 255 264 274 282 286 290 293 293 297 300 303 307 310 312 315 317 318 320 321 323 325 326 330 335 338 339 340 337 335 333 331 329 328 330 334 333 330 331 331 328 324 322 321 319 318 318 317 317 314
234 230 226 223 219 215 213 211 209 208 207 207 207 205 205 205 204 205 205 205 204 204 206 207 208 210 211 211 213 216 220 225 228 234 242 250 260 269 277 284 287 291 294 296 300 303 306 309 311 314 316 317 319 321 321 322 325 328 333 336 338 340 340 339 336 333 332 331 331 334 338 336 331 330 331 327 320 317 316 315 317 318 316 314 314
234 230 225 222 219 216 215 213 212 212 211 210 209 207 207 206 205 206 206 206 207 207 208 210 210 211 212 213 216 219 223 228 232 239 246 254 264 273 280 286 290 294 297 300 304 307 309 310 312 314 316 318 321 322 322 324 327 331 335 337 338 341 342 339 336 334 335 337 338 337 337 336 333 331 330 325 319 318 318 316 317 318 318 317 318
236 232 227 225 223 221 220 218 217 216 214 212 211 209 208 207 207 207 206 206 207 208 210 211 212 213 213 215 218 222 226 231 235 242 249 259 269 277 285 290 294 297 301 305 308 308 309 311 312 315 317 320 322 322 324 327 331 334 335 336 339 341 340 337 336 337 339 340 339 336 335 335 333 330 328 328 328 326 322 319 322 326 325 323 321
240 236 233 230 228 226 224 223 221 219 217 215 213 211 209 208 208 208 207 207 208 209 211 211 212 214 216 218 221 224 228 233 238 245 253 265 275 284 290 294 297 301 304 307 308 308 309 310 312 316 318 320 322 324 327 330 332 335 335 336 339 340 338 337 339 341 341 339 337 335 335 334 332 330 332 336 335 330 325 327 333 334 330 325 322
245 241 238 235 232 230 228 226 225 222 219 217 214 212 210 209 208 209 209 210 210 211 212 213 213 214 216 219 223 225 229 235 241 248 259 272 282 290 294 297 301 305 307 307 307 307 308 310 313 315 318 320 323 326 329 332 334 336 336 337 339 338 337 339 341 341 339 336 335 336 335 335 334 337 341 343 342 338 336 336 338 336 331 326 324
254 248 244 241 238 235 232 229 227 224 221 218 215 213 211 210 209 209 209 211 213 213 214 214 215 215 216 219 222 226 231 236 242 252 265 279 288 294 299 303 306 306 305 305 305 306 308 310 312 315 317 321 324 328 332 334 336 338 338 338 337 336 338 340 341 338 336 335 336 336 337 338 341 344 345 345 346 348 347 343 341 339 333 328 327
262 256 251 247 243 239 235 232 229 225 222 219 216 214 213 211 210 210 210 212 213 215 215 215 216 217 218 220 223 227 231 236 244 258 272 283 292 299 303 305 304 303 303 303 304 306 308 310 312 315 318 322 325 329 334 337 338 339 338 335 335 336 339 340 338 336 335 335 336 338 340 343 346 347 346 345 346 348 349 348 348 345 338 332 330
262 259 256 251 247 244 239 236 232 227 223 221 218 215 214 213 213 212 212 212 213 214 216 216 217 219 220 221 224 226 229 235 247 262 274 282 291 298 299 299 299 299 300 302 304 306 308 310 313 317 320 323 327 332 335 338 339 338 335 334 335 337 337 336 335 334 335 336 338 342 345 348 350 350 350 350 349 348 347 346 347 348 344 337 333
262 259 256 252 249 245 240 236 231 226 223 220 218 216 214 213 213 214 213 214 214 214 216 217 218 219 220 222 224 224 227 236 248 260 270 279 286 290 291 293 295 296 297 299 302 304 307 311 316 319 322 326 331 334 337 339 337 335 333 334 335 335 335 335 335 335 336 338 342 346 350 352 353 354 354 354 353 350 346 344 343 344 345 342 336
266 262 258 254 250 246 241 236 230 225 222 219 217 216 215 214 213 214 215 215 215 216 217 218 219 220 221 222 222 221 226 237 249 260 271 279 283 285 287 289 291 292 294 297 300 304 308 314 318 321 325 329 333 336 338 337 335 334 334 334 334 334 334 335 336 336 339 343 347 351 355 355 356 356 355 355 353 350 347 344 342 341 341 341 338
270 266 262 258 253 248 243 237 231 226 222 220 218 217 217 216 215 215 216 217 218 219 219 220 220 221 221 221 219 221 230 243 255 266 275 279 279 281 284 286 286 288 291 296 301 305 310 315 319 323 328 332 335 337 337 335 334 334 333 332 333 334 336 337 338 339 343 348 352 355 357 358 357 356 355 353 351 349 347 345 344 343 341 339 339
274 270 266 261 256 251 245 239 233 228 224 222 220 219 218 218 218 217 217 217 219 220 221 221 221 221 221 219 219 226 240 250 262 273 275 274 275 278 280 281 282 286 291 296 301 305 310 315 319 324 329 333 337 337 335 334 334 333 332 332 333 336 338 339 340 342 348 353 354 355 358 358 357 356 354 351 350 350 349 348 348 347 343 340 340
274 271 267 263 258 252 246 240 234 229 225 223 222 221 221 221 220 220 219 219 220 221 222 222 222 220 219 219 224 236 247 257 270 275 271 270 273 275 276 276 279 285 291 295 300 303 309 314 319 325 331 335 337 335 333 334 334 332 332 333 336 339 340 340 342 346 351 354 354 355 357 358 357 355 353 351 352 354 354 352 350 349 346 343 342
271 269 267 264 258 252 247 241 235 230 226 223 221 221 222 222 223 223 222 221 221 221 221 221 221 220 219 222 232 243 252 264 275 273 267 268 271 270 270 272 278 284 288 292 297 302 307 313 319 326 333 335 334 332 331 331 331 331 333 336 338 340 341 341 344 348 351 353 353 353 355 356 356 355 354 353 355 358 0 357 353 350 349 347 345
272 269 266 263 259 253 248 242 237 232 228 225 223 222 222 222 224 225 226 226 226 224 223 222 220 221 223 229 240 249 260 272 276 268 264 266 266 264 267 273 278 282 284 288 293 300 306 313 319 327 332 331 328 326 325 327 329 331 334 337 339 340 340 341 344 347 351 352 351 350 352 354 355 354 355 355 356 359 2 360 355 352 351 351 351
274 269 265 262 259 254 248 243 238 233 229 226 224 224 223 224 225 226 227 228 229 229 229 226 225 226 230 238 247 257 268 275 272 265 262 263 262 264 269 273 275 277 280 285 293 300 306 313 319 323 325 323 320 319 321 324 329 332 335 337 338 339 339 340 342 346 349 350 349 349 350 352 353 355 355 354 356 359 1 359 356 354 352 354 357
274 270 266 263 259 255 250 245 239 234 230 227 225 224 223 224 224 225 226 227 228 228 228 227 228 231 235 243 252 260 267 270 265 260 261 262 264 266 269 270 270 274 279 286 293 299 305 311 314 316 317 317 317 318 320 324 329 332 335 337 338 338 339 340 342 344 346 346 346 347 348 349 352 355 354 353 354 357 359 359 357 356 356 357 0
275 271 269 266 262 258 253 248 242 236 231 228 226 225 224 223 223 224 225 226 226 225 224 224 227 232 240 247 252 256 263 266 262 259 260 262 264 265 265 266 269 274 280 286 291 296 302 306 307 310 314 315 316 318 321 325 327 330 334 337 338 338 338 339 341 342 341 341 342 344 346 348 351 353 353 352 352 354 356 357 356 358 2 3 3
277 276 273 270 266 261 256 251 245 239 234 229 226 226 225 225 224 223 223 223 224 223 223 224 229 235 242 246 249 257 268 269 263 258 259 260 261 261 261 264 269 275 279 281 286 293 298 300 303 309 313 314 315 317 320 322 324 328 333 336 336 338 338 339 340 339 338 337 339 342 344 346 348 351 351 351 352 354 355 356 356 359 4 7 7
280 278 275 272 267 262 258 253 247 242 236 232 228 227 227 227 227 225 224 223 222 222 223 226 232 238 242 244 250 263 269 267 261 257 257 257 257 257 259 263 269 273 276 279 284 291 294 297 303 309 310 311 314 316 317 318 322 327 331 332 333 336 338 338 338 337 336 336 338 340 342 344 346 348 349 350 352 354 355 357 358 360 5 10 11
278 277 274 271 268 264 260 256 251 245 240 235 232 230 229 229 229 229 227 225 224 223 224 227 233 239 241 244 253 262 264 260 257 254 252 252 252 254 257 261 266 270 274 278 283 288 291 296 302 306 308 310 313 313 313 315 320 325 328 329 330 332 334 336 337 337 338 339 339 340 341 343 345 346 347 349 351 354 357 1 2 3 7 11 14
278 277 275 272 269 266 262 258 254 249 244 238 235 233 232 231 231 231 231 231 231 230 230 231 234 239 241 246 253 259 258 254 250 247 247 248 250 252 255 259 264 268 272 276 280 284 289 295 300 303 305 308 309 309 310 314 318 321 323 325 327 329 332 334 336 339 342 342 341 341 341 341 343 345 347 348 349 352 359 4 6 7 10 13 17
278 277 276 274 272 269 265 261 257 252 248 243 238 235 234 233 234 234 233 234 235 235 235 236 239 241 243 246 251 253 251 247 243 242 244 246 248 250 253 257 262 266 269 272 276 281 287 292 296 299 302 303 304 305 309 312 315 318 320 322 325 328 331 333 336 340 344 344 343 342 340 339 341 345 347 348 348 351 359 6 9 11 14 18 22
279 277 276 275 274 272 268 264 260 255 251 246 241 237 235 235 235 235 235 235 235 235 236 238 241 243 243 245 247 247 244 241 240 240 242 244 246 249 252 256 261 266 269 271 274 279 284 289 293 296 297 298 300 303 307 309 310 313 317 320 323 325 329 333 336 339 342 343 343 342 341 340 341 345 348 348 347 349 358 8 12 15 18 22 26
280 279 277 275 273 272 269 266 263 258 254 249 244 240 237 236 236 236 236 236 237 237 237 239 242 244 246 248 248 245 241 239 239 241 243 244 247 250 253 256 262 267 270 271 274 278 283 287 290 291 292 294 297 301 303 304 306 308 313 316 320 322 326 330 335 337 339 341 342 342 342 341 342 345 350 349 345 345 352 3 11 17 22 24 27
281 279 276 274 273 271 269 267 265 261 257 253 248 243 240 238 238 237 238 238 238 238 239 241 243 246 248 249 247 244 241 242 243 245 246 247 248 251 253 257 263 267 269 270 273 276 280 282 285 286 288 291 294 297 299 300 302 306 310 314 316 319 322 326 331 335 338 340 342 342 342 342 343 348 351 349 344 342 345 354 6 14 19 22 25
281 279 276 273 272 270 269 267 265 262 260 257 252 248 244 242 241 241 240 240 241 242 243 244 245 248 250 250 248 245 245 247 248 249 248 248 249 251 253 257 263 266 267 268 271 273 275 277 280 282 284 287 290 292 295 298 301 305 309 311 314 317 320 323 328 333 337 340 341 342 342 342 345 349 351 349 344 339 336 342 359 11 15 19 21
282 280 278 275 273 270 268 266 265 263 262 259 256 252 249 246 244 243 243 243 243 244 245 246 247 249 251 251 249 247 248 249 250 249 248 248 248 250 253 257 261 264 265 267 270 271 271 273 275 278 280 283 285 287 291 295 299 303 306 309 312 315 318 321 324 329 335 339 339 339 340 342 345 349 350 349 345 338 331 333 350 5 11 17 20
286 284 282 280 277 274 271 268 267 265 264 261 259 256 253 250 248 247 246 246 246 246 247 248 250 251 252 251 249 247 247 248 247 246 246 246 247 250 253 257 259 262 265 267 268 268 269 270 272 274 276 278 280 282 286 290 295 299 302 306 311 315 317 318 320 324 331 336 336 336 337 339 342 346 347 347 345 340 333 330 339 354 3 11 17
288 287 285 283 281 278 276 273 271 268 265 263 262 260 257 253 251 250 250 250 249 249 250 251 252 252 253 251 248 245 245 246 245 245 245 246 248 250 252 254 258 262 264 265 266 266 266 267 269 270 272 273 275 278 282 286 290 294 298 303 309 313 314 316 318 321 326 331 333 333 334 335 337 339 342 343 343 340 335 329 329 339 350 358 6
287 287 287 286 284 282 280 278 275 271 269 267 265 263 261 257 255 253 252 252 252 252 252 253 253 253 252 250 246 245 246 246 246 245 245 246 248 249 250 253 258 261 262 263 263 263 263 263 264 266 268 269 271 275 279 284 287 291 294 299 304 307 310 312 315 319 323 326 329 330 330 330 331 332 334 337 338 338 335 330 325 326 335 342 349
288 287 287 287 286 285 283 282 279 276 273 270 267 265 263 261 259 258 256 255 255 254 253 253 253 253 251 249 248 248 248 248 247 246 246 247 249 249 250 254 257 259 259 259 260 260 259 259 260 261 263 266 269 273 277 282 286 289 293 297 300 303 305 307 311 316 319 322 324 326 326 326 327 327 327 329 331 332 332 329 324 322 324 328 330
292 290 289 288 288 287 286 285 283 281 278 275 271 269 266 265 263 262 260 259 258 257 256 255 253 252 251 250 249 249 249 248 247 246 246 247 247 247 250 253 255 255 255 256 256 257 257 257 257 258 259 261 266 271 275 279 283 287 291 295 298 299 300 302 305 310 313 316 319 321 321 321 322 322 322 323 324 324 325 324 321 318 317 318 319
296 295 293 292 290 289 287 286 284 283 281 279 277 274 271 269 267 265 264 262 261 259 258 256 254 253 252 250 250 249 249 248 247 246 245 245 245 246 249 251 251 251 252 252 253 255 256 256 256 257 257 258 263 268 272 276 281 285 289 293 295 296 297 297 300 303 306 308 312 314 315 315 315 316 316 316 316 316 317 316 315 312 309 307 308
300 299 297 296 294 292 290 289 286 285 283 281 280 278 276 273 271 269 267 265 263 261 259 257 255 253 252 250 249 249 248 247 246 244 243 243 244 246 247 248 248 248 249 249 251 253 255 256 257 258 258 259 262 265 269 274 278 283 287 289 290 292 292 293 294 296 298 300 304 306 308 309 309 309 310 311 311 311 310 309 309 307 304 301 300
300 299 299 298 296 294 293 291 288 286 285 282 281 279 277 275 273 272 270 268 266 263 261 258 256 254 251 250 248 247 246 245 244 242 242 242 243 244 245 245 246 247 247 247 249 251 253 255 257 259 260 262 264 266 269 272 276 280 284 286 287 288 289 289 289 289 290 292 295 298 300 302 303 303 303 304 305 306 305 304 303 301 299 296 294
298 297 297 296 295 294 292 290 289 287 286 283 282 280 278 276 275 274 272 270 268 265 262 260 257 255 253 251 249 247 246 245 244 243 243 243 243 243 243 244 246 246 245 245 247 249 251 254 257 259 261 264 266 268 270 273 276 280 282 283 284 285 285 285 285 285 285 286 288 290 292 294 296 297 297 298 299 300 301 299 298 296 294 293 290
295 295 294 293 292 292 290 289 288 287 285 284 283 282 280 278 276 275 273 272 270 268 265 263 261 258 255 253 250 248 247 246 244 243 243 243 243 243 243 245 245 245 244 244 245 247 250 253 256 259 262 264 267 269 272 275 278 279 280 281 283 284 284 283 283 282 281 282 283 284 286 288 290 291 291 291 292 293 294 294 293 291 290 289 287
Height
1504 1505 1506 1508 1509 1511 1512 1514 1516 1518 1520 1522 1524 1526 1528 1529 1531 1533 1535 1536 1538 1539 1540 1542 1544 1545 1547 1548 1549 1551 1552 1553 1554 1555 1556 1557 1558 1559 1559 1560 1560 1560 1561 1561 1560 1560 1560 1560 1559 1559 1558 1558 1557 1557 1556 1555 1553 1552 1550 1548 1546 1544 1540 1537 1532 1523 1520 1521 1520 1517 1514 1511 1507 1504 1499 1494 1491 1487 1483 1480 1476 1471 1466 1462 1458
1500 1502 1503 1505 1506 1508 1510 1511 1513 1515 1516 1519 1521 1523 1525 1527 1529 1531 1532 1534 1535 1537 1538 1540 1542 1543 1545 1547 1548 1549 1550 1551 1553 1554 1555 1556 1557 1557 1558 1558 1559 1559 1559 1559 1559 1559 1558 1558 1558 1557 1557 1556 1555 1555 1554 1553 1552 1550 1548 1546 1544 1542 1539 1535 1531 1524 1517 1516 1516 1513 1510 1507 1503 1500 1497 1491 1486 1482 1477 1474 1471 1467 1462 1458 1454
1497 1498 1500 1501 1503 1505 1507 1508 1510 1512 1514 1516 1518 1521 1523 1525 1527 1528 1530 1532 1533 1535 1536 1538 1540 1542 1544 1545 1546 1548 1549 1550 1552 1553 1553 1554 1555 1556 1556 1557 1557 1557 1557 1557 1557 1557 1556 1556 1556 1555 1555 1554 1554 1553 1552 1550 1549 1548 1546 1544 1542 1539 1537 1534 1530 1525 1517 1512 1511 1509 1505 1502 1499 1496 1493 1489 1485 1480 1474 1470 1467 1463 1459 1455 1450
1494 1495 1497 1498 1500 1502 1504 1506 1508 1510 1512 1514 1516 1519 1521 1523 1524 1526 1528 1529 1531 1532 1534 1537 1539 1541 1542 1544 1545 1546 1548 1549 1550 1551 1552 1553 1554 1554 1555 1555 1555 1556 1556 1556 1555 1555 1555 1554 1554 1553 1553 1553 1552 1550 1549 1548 1547 1545 1543 1541 1539 1537 1535 1532 1528 1524 1518 1512 1508 1506 1502 1499 1496 1493 1489 1485 1481 1477 1472 1467 1462 1458 1454 1451 1447
1492 1493 1494 1496 1498 1500 1502 1504 1506 1508 1510 1512 1514 1517 1519 1521 1522 1524 1525 1527 1528 1530 1533 1535 1537 1539 1540 1542 1543 1544 1546 1547 1548 1549 1550 1551 1552 1553 1553 1554 1554 1554 1554 1554 1553 1553 1552 1552 1552 1551 1551 1550 1549 1548 1547 1546 1544 1543 1541 1539 1537 1534 1531 1529 1526 1523 1519 1512 1507 1504 1501 1497 1493 1490 1486 1481 1475 1472 1468 1463 1458 1453 1448 1443 1441
1490 1491 1493 1494 1496 1498 1500 1502 1504 1506 1508 1511 1513 1515 1517 1519 1520 1521 1523 1525 1527 1529 1532 1534 1535 1537 1538 1540 1542 1543 1544 1546 1547 1548 1549 1550 1551 1551 1552 1552 1552 1552 1552 1551 1551 1551 1550 1550 1549 1549 1548 1547 1546 1545 1544 1543 1542 1540 1538 1535 1533 1531 1528 1526 1523 1520 1516 1512 1506 1501 1497 1493 1488 1485 1482 1478 1472 1467 1462 1457 1452 1449 1443 1435 1431
1489 1490 1491 1493 1495 1497 1499 1501 1503 1505 1508 1509 1512 1513 1515 1516 1518 1519 1521 1523 1526 1528 1530 1531 1533 1535 1537 1538 1540 1541 1543 1544 1545 1546 1548 1548 1549 1550 1550 1550 1550 1550 1550 1549 1549 1548 1548 1547 1547 1546 1545 1544 1544 1543 1541 1540 1539 1537 1535 1532 1529 1527 1524 1522 1519 1516 1512 1508 1504 1499 1493 1489 1485 1481 1478 1475 1470 1465 1460 1453 1446 1442 1439 1432 1425
1488 1489 1490 1492 1493 1495 1497 1500 1502 1504 1506 1508 1509 1511 1512 1514 1516 1518 1520 1522 1524 1526 1528 1529 1531 1533 1535 1537 1538 1540 1541 1542 1544 1545 1546 1547 1547 1548 1548 1548 1548 1548 1547 1547 1546 1546 1545 1545 1544 1543 1543 1542 1541 1539 1538 1536 1535 1533 1531 1529 1526 1523 1521 1518 1515 1512 1508 1503 1499 1495 1489 1485 1482 1478 1474 1470 1464 1460 1457 1453 1445 1438 1435 1430 1424
1487 1488 1489 1490 1492 1494 1496 1499 1500 1502 1504 1505 1507 1508 1510 1512 1514 1516 1518 1520 1523 1525 1526 1528 1530 1532 1533 1535 1536 1538 1539 1541 1542 1543 1544 1545 1545 1546 1546 1546 1546 1545 1545 1544 1544 1543 1543 1542 1541 1541 1540 1539 1538 1537 1535 1533 1532 1530 1527 1525 1523 1520 1517 1514 1511 1507 1504 1500 1495 1492 1487 1482 1478 1475 1470 1466 1462 1457 1453 1451 1445 1438 1432 1426 1420
1486 1487 1488 1489 1491 1493 1494 1496 1498 1499 1501 1503 1505 1507 1509 1511 1513 1515 1517 1519 1521 1523 1525 1527 1529 1530 1532 1533 1535 1536 1537 1539 1540 1541 1542 1543 1543 1544 1544 1544 1543 1543 1542 1542 1541 1541 1540 1540 1539 1539 1538 1537 1536 1534 1533 1531 1529 1527 1525 1522 1520 1517 1513 1510 1507 1504 1500 1496 1493 1490 1485 1480 1476 1473 1469 1465 1462 1457 1452 1448 1443 1436 1430 1422 1413
1484 1485 1486 1487 1489 1491 1492 1494 1496 1497 1499 1501 1503 1506 1508 1509 1512 1514 1516 1518 1520 1522 1523 1525 1527 1529 1530 1532 1533 1534 1535 1537 1538 1539 1540 1540 1541 1542 1542 1542 1541 1541 1540 1540 1539 1539 1538 1538 1537 1536 1536 1535 1533 1532 1530 1528 1527 1525 1522 1520 1517 1514 1511 1508 1505 1502 1498 1494 1491 1488 1485 1479 1474 1472 1469 1464 1460 1456 1452 1448 1443 1436 1430 1423 1413
1483 1484 1485 1486 1488 1489 1491 1493 1494 1496 1498 1500 1502 1504 1506 1508 1510 1512 1514 1516 1518 1520 1522 1523 1525 1526 1528 1529 1531 1532 1533 1534 1536 1537 1537 1538 1539 1539 1539 1539 1539 1538 1538 1538 1537 1537 1536 1536 1535 1534 1534 1532 1531 1529 1528 1526 1524 1522 1520 1518 1515 1513 1510 1507 1503 1500 1496 1493 1489 1486 1484 1479 1473 1469 1467 1463 1458 1454 1450 1446 1443 1437 1430 1425 1417
1482 1483 1484 1485 1486 1488 1489 1491 1493 1495 1496 1498 1501 1503 1505 1507 1509 1510 1512 1514 1516 1518 1519 1521 1523 1524 1526 1527 1529 1530 1531 1532 1534 1534 1535 1536 1536 1537 1537 1536 1536 1536 1535 1535 1535 1534 1534 1533 1533 1532 1531 1530 1528 1527 1525 1523 1522 1520 1517 1515 1512 1510 1508 1505 1502 1499 1495 1492 1487 1483 1481 1477 1471 1468 1466 1463 1458 1453 1449 1444 1441 1437 1429 1423 1417
1480 1481 1482 1484 1485 1486 1488 1489 1491 1493 1495 1497 1499 1501 1503 1505 1507 1508 1510 1512 1513 1515 1517 1519 1520 1522 1524 1525 1526 1527 1529 1530 1531 1532 1533 1533 1534 1534 1534 1534 1534 1533 1533 1532 1532 1532 1531 1531 1530 1529 1528 1527 1525 1524 1522 1520 1519 1516 1514 1511 1509 1507 1505 1502 1499 1496 1493 1489 1485 1480 1477 1474 1470 1466 1463 1462 1458 1453 1449 1443 1439 1436 1429 1422 1415
1478 1479 1481 1482 1483 1484 1486 1487 1489 1491 1493 1495 1496 1498 1500 1502 1504 1506 1507 1509 1511 1513 1515 1517 1518 1520 1521 1523 1524 1525 1526 1528 1529 1530 1530 1531 1531 1531 1531 1531 1531 1531 1530 1530 1529 1529 1528 1528 1527 1526 1525 1524 1522 1521 1519 1517 1515 1512 1510 1508 1505 1503 1501 1498 1496 1493 1489 1485 1481 1477 1475 1472 1469 1465 1461 1459 1456 1452 1447 1443 1438 1434 1428 1420 1413
1476 1477 1479 1480 1481 1482 1484 1485 1487 1488 1490 1492 1493 1495 1497 1499 1501 1503 1505 1507 1509 1511 1513 1515 1516 1518 1519 1520 1522 1523 1524 1525 1527 1527 1528 1529 1529 1529 1529 1529 1529 1528 1528 1527 1527 1526 1526 1525 1524 1523 1522 1520 1519 1517 1515 1513 1511 1508 1506 1504 1501 1499 1497 1495 1492 1489 1485 1482 1479 1477 1474 1471 1467 1464 1461 1456 1452 1448 1444 1439 1435 1431 1425 1417 1410
1474 1475 1476 1477 1479 1480 1481 1483 1484 1486 1487 1489 1490 1492 1494 1496 1499 1501 1503 1505 1507 1509 1511 1512 1514 1516 1517 1518 1520 1521 1522 1523 1524 1525 1526 1526 1526 1526 1526 1526 1526 1526 1525 1525 1524 1524 1523 1522 1521 1520 1519 1517 1516 1514 1512 1509 1507 1505 1502 1500 1498 1495 1493 1491 1487 1484 1481 1480 1478 1475 1473 1469 1466 1462 1457 1452 1449 1445 1441 1435 1431 1427 1422 1416 1410
1471 1472 1473 1475 1477 1478 1479 1481 1482 1483 1485 1486 1488 1491 1493 1495 1497 1499 1501 1503 1505 1507 1509 1511 1512 1514 1515 1516 1518 1519 1520 1521 1522 1522 1523 1523 1523 1523 1523 1524 1524 1524 1523 1523 1522 1521 1521 1520 1518 1517 1515 1514 1512 1510 1509 1506 1504 1502 1499 1496 1494 1491 1489 1486 1483 1480 1479 1477 1475 1473 1470 1466 1462 1457 1452 1448 1446 1443 1439 1434 1430 1426 1422 1416 1410
1468 1469 1471 1473 1475 1476 1477 1479 1480 1482 1484 1485 1487 1490 1492 1494 1496 1498 1500 1502 1504 1506 1507 1508 1510 1512 1513 1514 1515 1516 1517 1518 1519 1520 1520 1520 1521 1521 1521 1521 1521 1521 1521 1520 1520 1519 1518 1517 1515 1514 1513 1511 1509 1507 1505 1503 1501 1499 1496 1493 1490 1488 1485 1482 1479 1477 1475 1473 1470 1468 1465 1461 1457 1452 1448 1445 1442 1439 1436 1434 1430 1426 1422 1416 1411
1466 1468 1469 1471 1473 1474 1475 1477 1479 1481 1483 1485 1487 1489 1491 1493 1495 1496 1498 1500 1502 1504 1505 1507 1509 1510 1511 1512 1513 1514 1515 1516 1517 1517 1518 1518 1518 1518 1518 1519 1519 1519 1518 1517 1517 1516 1515 1514 1513 1512 1510 1508 1507 1504 1502 1500 1498 1496 1494 1491 1488 1485 1481 1479 1477 1474 1471 1469 1466 1463 1460 1456 1452 1449 1446 1443 1439 1435 1432 1430 1428 1425 1421 1415 1410
1464 1465 1467 1468 1470 1471 1473 1475 1477 1479 1481 1483 1486 1488 1489 1491 1493 1494 1496 1498 1500 1502 1503 1505 1507 1508 1509 1510 1511 1512 1513 1514 1514 1514 1515 1515 1515 1516 1516 1516 1516 1516 1515 1515 1514 1513 1512 1511 1510 1509 1507 1505 1504 1502 1500 1498 1496 1494 1491 1489 1486 1483 1480 1478 1475 1472 1469 1466 1462 1459 1455 1452 1449 1446 1443 1440 1436 1432 1428 1425 1423 1421 1419 1414 1409
1462 1463 1464 1465 1467 1468 1470 1472 1474 1476 1478 1480 1483 1485 1486 1489 1490 1492 1494 1496 1498 1500 1502 1503 1505 1506 1507 1508 1508 1510 1510 1511 1512 1512 1512 1512 1513 1513 1514 1514 1513 1513 1512 1511 1510 1509 1509 1507 1506 1505 1504 1502 1501 1499 1497 1495 1493 1491 1489 1486 1484 1481 1479 1476 1473 1470 1466 1463 1459 1455 1451 1448 1446 1443 1440 1437 1433 1429 1425 1421 1418 1416 1414 1412 1409
1459 1460 1461 1463 1464 1466 1468 1470 1471 1473 1476 1478 1480 1482 1484 1487 1489 1491 1493 1495 1496 1498 1499 1501 1502 1503 1504 1505 1506 1507 1508 1508 1509 1509 1509 1510 1510 1511 1511 1511 1510 1510 1509 1508 1507 1506 1505 1504 1503 1502 1501 1499 1498 1496 1494 1492 1490 1488 1486 1483 1481 1479 1477 1474 1471 1467 1464 1460 1456 1452 1448 1446 1444 1440 1437 1434 1430 1426 1423 1419 1415 1412 1409 1407 1405
1457 1458 1459 1460 1462 1464 1465 1467 1469 1471 1474 1476 1478 1481 1483 1485 1487 1489 1491 1492 1494 1495 1496 1498 1499 1500 1501 1502 1503 1504 1505 1505 1506 1506 1506 1507 1508 1508 1508 1507 1507 1507 1505 1504 1504 1502 1501 1501 1500 1499 1498 1496 1495 1493 1492 1490 1487 1485 1483 1481 1479 1477 1474 1471 1468 1465 1461 1457 1453 1449 1447 1445 1442 1439 1435 1432 1428 1425 1421 1418 1414 1410 1406 1403 1401
1454 1455 1456 1457 1459 1461 1463 1465 1467 1469 1471 1473 1475 1478 1480 1482 1484 1485 1487 1489 1490 1492 1493 1494 1495 1497 1498 1499 1500 1501 1502 1502 1502 1503 1503 1504 1505 1505 1505 1504 1504 1503 1502 1501 1500 1499 1498 1498 1497 1496 1495 1493 1492 1491 1489 1487 1485 1483 1481 1479 1477 1474 1471 1468 1465 1462 1458 1454 1450 1448 1447 1445 1442 1438 1435 1431 1427 1423 1419 1415 1411 1408 1405 1401 1398
1451 1452 1453 1455 1456 1458 1460 1462 1464 1466 1469 1471 1473 1475 1476 1478 1480 1481 1483 1485 1486 1488 1489 1491 1492 1493 1494 1495 1496 1497 1498 1498 1498 1499 1500 1501 1502 1502 1502 1501 1500 1500 1499 1498 1497 1496 1495 1495 1494 1493 1491 1490 1489 1488 1486 1485 1483 1481 1479 1476 1474 1471 1468 1466 1463 1459 1455 1452 1449 1447 1446 1444 1441 1437 1434 1430 1426 1421 1417 1412 1408 1405 1402 1398 1394
1448 1449 1450 1451 1453 1455 1456 1459 1461 1463 1465 1467 1469 1472 1474 1476 1477 1478 1479 1481 1482 1484 1485 1487 1488 1489 1490 1492 1493 1493 1494 1494 1495 1496 1497 1498 1498 1498 1498 1498 1497 1496 1496 1495 1494 1493 1492 1491 1491 1489 1488 1486 1485 1485 1484 1482 1481 1479 1476 1473 1471 1468 1466 1464 1461 1457 1453 1450 1448 1447 1445 1443 1439 1436 1432 1428 1424 1420 1416 1412 1408 1404 1400 1396 1392
1445 1447 1447 1448 1450 1451 1453 1455 1457 1459 1461 1463 1465 1468 1469 1471 1473 1474 1476 1478 1479 1480 1481 1483 1484 1486 1487 1488 1489 1489 1490 1490 1491 1492 1493 1493 1494 1494 1494 1494 1493 1493 1493 1492 1491 1490 1489 1488 1487 1486 1485 1484 1483 1482 1482 1480 1479 1476 1473 1471 1468 1466 1464 1462 1459 1455 1452 1449 1447 1446 1444 1441 1438 1434 1430 1426 1422 1419 1415 1412 1408 1404 1399 1396 1392
1443 1444 1445 1445 1447 1448 1450 1451 1453 1455 1457 1459 1462 1464 1466 1467 1469 1471 1474 1476 1477 1478 1479 1480 1482 1483 1484 1485 1485 1485 1486 1486 1488 1488 1489 1490 1490 1490 1491 1490 1490 1490 1489 1488 1487 1486 1485 1484 1483 1482 1482 1481 1480 1480 1479 1478 1476 1474 1471 1469 1466 1464 1462 1460 1456 1452 1449 1447 1446 1444 1442 1439 1436 1432 1428 1424 1421 1418 1414 1411 1407 1403 1399 1395 1392
1441 1442 1442 1443 1444 1445 1446 1448 1450 1452 1454 1456 1458 1460 1462 1464 1466 1468 1470 1472 1474 1475 1477 1478 1480 1481 1481 1481 1481 1482 1482 1483 1484 1485 1486 1486 1487 1487 1487 1487 1487 1486 1486 1484 1483 1483 1481 1481 1480 1479 1479 1478 1477 1477 1475 1474 1473 1471 1469 1466 1463 1461 1460 1457 1453 1449 1447 1445 1444 1443 1440 1437 1434 1430 1426 1423 1420 1416 1413 1410 1407 1403 1398 1394 1391
1439 1439 1440 1441 1442 1443 1444 1445 1447 1449 1451 1452 1455 1456 1458 1460 1462 1464 1466 1468 1469 1471 1473 1474 1476 1476 1477 1477 1478 1478 1479 1480 1481 1482 1482 1483 1483 1483 1484 1483 1483 1482 1481 1481 1480 1479 1478 1477 1477 1476 1475 1474 1473 1472 1471 1470 1469 1467 1465 1463 1461 1459 1457 1454 1450 1447 1445 1444 1443 1441 1438 1435 1432 1429 1425 1422 1418 1415 1412 1409 1405 1402 1398 1395 1391
1437 1438 1439 1440 1440 1441 1442 1443 1444 1446 1447 1449 1451 1452 1454 1456 1458 1460 1461 1463 1465 1467 1468 1470 1471 1471 1472 1473 1473 1474 1475 1476 1477 1478 1479 1479 1480 1480 1479 1479 1478 1478 1477 1477 1476 1475 1474 1474 1473 1472 1471 1470 1469 1468 1467 1466 1465 1464 1461 1460 1459 1457 1454 1451 1448 1446 1444 1442 1441 1439 1437 1434 1431 1428 1425 1421 1418 1414 1411 1407 1404 1401 1398 1395 1392
1436 1436 1437 1437 1438 1439 1439 1440 1441 1442 1443 1445 1447 1448 1450 1451 1453 1455 1457 1458 1460 1462 1463 1464 1466 1467 1468 1469 1469 1470 1471 1471 1472 1473 1474 1475 1475 1475 1475 1475 1474 1474 1473 1473 1472 1472 1471 1470 1469 1468 1467 1466 1465 1465 1464 1463 1462 1460 1458 1457 1456 1454 1451 1448 1446 1444 1443 1441 1439 1437 1435 1432 1429 1426 1424 1421 1417 1414 1410 1407 1403 1400 1397 1395 1392
1433 1433 1434 1435 1435 1436 1436 1437 1438 1439 1441 1442 1444 1445 1446 1448 1450 1451 1453 1454 1455 1456 1458 1460 1461 1462 1463 1464 1465 1465 1466 1467 1467 1468 1470 1470 1471 1470 1470 1470 1470 1470 1470 1469 1468 1468 1468 1467 1465 1464 1463 1462 1461 1461 1461 1460 1458 1457 1456 1455 1454 1452 1449 1447 1445 1443 1441 1439 1437 1435 1433 1431 1428 1425 1423 1420 1416 1413 1410 1406 1403 1400 1397 1395 1392
1431 1431 1432 1432 1432 1433 1434 1435 1436 1437 1438 1440 1441 1442 1444 1446 1447 1448 1449 1450 1451 1452 1454 1456 1457 1458 1458 1459 1460 1461 1461 1462 1463 1464 1465 1465 1466 1466 1466 1465 1465 1466 1465 1465 1465 1464 1464 1463 1462 1461 1460 1459 1458 1458 1457 1456 1455 1454 1453 1453 1451 1449 1447 1445 1443 1441 1439 1437 1435 1433 1431 1429 1426 1424 1421 1419 1415 1412 1409 1406 1403 1400 1398 1395 1393
1428 1429 1429 1429 1430 1430 1431 1432 1433 1435 1436 1437 1439 1440 1442 1443 1444 1445 1446 1447 1448 1449 1451 1452 1453 1453 1453 1454 1455 1456 1456 1457 1458 1459 1460 1461 1461 1461 1461 1461 1461 1461 1461 1461 1461 1460 1460 1459 1458 1457 1456 1455 1455 1454 1453 1452 1452 1451 1450 1449 1448 1446 1444 1442 1440 1439 1437 1435 1433 1431 1429 1427 1425 1422 1420 1418 1415 1412 1409 1406 1403 1401 1399 1396 1394
1425 1426 1426 1427 1427 1428 1428 1429 1430 1432 1433 1434 1436 1437 1438 1439 1440 1441 1442 1443 1444 1445 1446 1447 1447 1447 1448 1449 1450 1451 1451 1452 1453 1454 1455 1456 1456 1456 1457 1458 1458 1457 1457 1457 1457 1456 1456 1455 1455 1454 1453 1452 1451 1450 1449 1449 1449 1448 1447 1446 1445 1443 1442 1440 1438 1436 1435 1433 1431 1429 1427 1425 1423 1420 1418 1416 1414 1411 1409 1406 1404 1401 1399 1397 1395
1423 1423 1423 1424 1424 1424 1425 1426 1427 1428 1430 1431 1432 1433 1434 1434 1435 1436 1437 1438 1439 1440 1440 1441 1441 1442 1443 1445 1446 1446 1446 1447 1448 1449 1450 1451 1451 1452 1453 1454 1454 1453 1453 1453 1453 1452 1452 1451 1451 1450 1449 1449 1448 1446 1446 1446 1446 1445 1444 1443 1442 1440 1439 1438 1437 1435 1433 1431 1429 1427 1425 1423 1421 1419 1417 1415 1413 1410 1408 1406 1403 1401 1399 1398 1396
1419 1419 1420 1420 1420 1421 1422 1423 1424 1425 1426 1427 1428 1429 1430 1430 1431 1432 1432 1433 1434 1434 1435 1435 1436 1437 1438 1440 1441 1442 1442 1442 1443 1444 1445 1446 1447 1448 1449 1449 1450 1450 1450 1450 1449 1449 1448 1448 1447 1447 1446 1445 1444 1443 1442 1443 1443 1442 1441 1440 1439 1438 1437 1436 1435 1433 1431 1429 1427 1425 1423 1421 1420 1418 1416 1414 1412 1409 1408 1406 1403 1401 1399 1398 1396
1416 1416 1416 1416 1416 1417 1418 1418 1419 1420 1421 1422 1423 1424 1425 1426 1426 1427 1428 1428 1429 1429 1430 1430 1431 1432 1433 1435 1436 1436 1437 1437 1438 1440 1441 1442 1442 1443 1444 1445 1445 1446 1446 1446 1446 1445 1445 1444 1444 1443 1443 1442 1441 1440 1439 1439 1439 1439 1438 1437 1436 1435 1434 1433 1432 1430 1428 1426 1425 1423 1421 1420 1418 1416 1415 1413 1411 1409 1407 1405 1403 1401 1399 1398 1396
1413 1413 1412 1412 1413 1413 1413 1413 1414 1415 1416 1417 1418 1419 1420 1421 1422 1423 1423 1423 1424 1424 1424 1425 1426 1428 1429 1431 1432 1433 1433 1434 1435 1437 1437 1437 1438 1439 1439 1440 1441 1441 1442 1442 1442 1442 1442 1441 1440 1440 1439 1439 1438 1437 1436 1436 1435 1435 1435 1434 1433 1432 1431 1430 1429 1428 1426 1424 1422 1421 1420 1418 1416 1415 1413 1411 1410 1408 1406 1404 1403 1401 1399 1397 1396
1409 1409 1409 1409 1409 1408 1408 1409 1409 1410 1411 1411 1412 1413 1414 1416 1417 1418 1418 1418 1419 1419 1420 1421 1422 1424 1425 1427 1428 1429 1429 1430 1431 1432 1432 1432 1433 1434 1435 1436 1436 1437 1437 1437 1437 1438 1437 1437 1436 1436 1435 1435 1435 1434 1433 1432 1432 1432 1432 1431 1430 1429 1428 1427 1426 1425 1423 1421 1420 1419 1417 1416 1415 1413 1412 1410 1408 1407 1405 1404 1402 1401 1399 1397 1396
1406 1405 1405 1405 1405 1404 1404 1404 1405 1405 1405 1406 1406 1408 1409 1410 1412 1412 1413 1413 1414 1414 1415 1416 1418 1419 1421 1423 1424 1424 1424 1425 1426 1427 1427 1428 1429 1429 1430 1431 1432 1432 1432 1433 1433 1433 1433 1433 1432 1432 1432 1432 1432 1431 1430 1429 1428 1428 1428 1428 1427 1426 1425 1424 1423 1421 1420 1419 1418 1416 1415 1414 1413 1411 1410 1408 1407 1406 1404 1403 1401 1400 1398 1397 1395
1402 1402 1402 1401 1401 1401 1400 1400 1400 1400 1400 1401 1402 1402 1403 1404 1405 1406 1407 1407 1408 1409 1410 1412 1413 1415 1416 1417 1418 1418 1418 1419 1421 1422 1422 1423 1424 1425 1426 1426 1427 1427 1428 1428 1429 1429 1429 1429 1429 1428 1428 1428 1428 1428 1427 1426 1425 1425 1424 1424 1423 1423 1422 1421 1419 1418 1416 1415 1414 1414 1413 1412 1411 1409 1408 1407 1406 1404 1403 1402 1400 1399 1398 1396 1395
1399 1399 1398 1398 1397 1397 1396 1396 1396 1396 1396 1396 1396 1396 1397 1398 1399 1400 1401 1401 1402 1403 1405 1406 1407 1409 1410 1411 1411 1412 1412 1414 1416 1417 1418 1418 1419 1420 1421 1421 1422 1422 1423 1424 1424 1424 1424 1425 1425 1424 1424 1425 1424 1424 1423 1422 1421 1421 1420 1419 1419 1419 1419 1418 1416 1414 1413 1412 1411 1410 1410 1409 1408 1407 1406 1405 1404 1403 1401 1400 1399 1398 1397 1396 1394
1396 1395 1395 1394 1394 1393 1393 1393 1392 1392 1391 1391 1391 1391 1391 1392 1392 1394 1395 1395 1396 1398 1399 1400 1401 1403 1404 1405 1405 1406 1407 1409 1410 1411 1412 1414 1414 1415 1416 1416 1417 1417 1418 1419 1419 1419 1420 1420 1420 1420 1421 1421 1421 1420 1419 1418 1418 1417 1416 1415 1415 1415 1414 1414 1413 1411 1410 1408 1407 1407 1407 1407 1406 1405 1404 1403 1402 1401 1400 1399 1398 1397 1396 1395 1393
1393 1392 1391 1391 1390 1389 1389 1388 1388 1387 1387 1386 1386 1386 1386 1386 1387 1388 1388 1389 1391 1392 1393 1394 1395 1396 1397 1399 1399 1400 1401 1403 1405 1406 1407 1408 1409 1410 1411 1411 1412 1413 1413 1413 1414 1414 1415 1415 1416 1416 1417 1417 1417 1417 1416 1415 1414 1413 1412 1411 1411 1411 1410 1410 1409 1408 1407 1406 1404 1404 1404 1403 1403 1402 1401 1401 1400 1399 1398 1397 1396 1395 1394 1393 1392
1389 1389 1388 1387 1386 1386 1385 1384 1384 1383 1382 1382 1382 1381 1381 1381 1381 1381 1382 1383 1384 1385 1387 1388 1389 1390 1391 1393 1394 1395 1396 1397 1399 1401 1402 1402 1404 1405 1405 1406 1407 1407 1408 1408 1409 1410 1410 1411 1411 1411 1412 1413 1413 1413 1412 1412 1411 1410 1409 1408 1407 1407 1406 1406 1405 1404 1404 1403 1402 1401 1401 1400 1400 1399 1399 1398 1397 1396 1395 1395 1394 1393 1392 1391 1390
1386 1385 1384 1383 1382 1382 1381 1380 1379 1379 1378 1377 1377 1376 1376 1375 1375 1375 1376 1377 1378 1379 1380 1381 1382 1384 1386 1387 1388 1389 1390 1392 1393 1395 1396 1397 1398 1399 1400 1401 1402 1402 1403 1404 1404 1405 1405 1406 1406 1407 1407 1408 1408 1409 1408 1408 1407 1406 1405 1405 1404 1403 1402 1402 1401 1401 1400 1400 1399 1398 1398 1397 1397 1396 1396 1395 1394 1393 1393 1392 1392 1391 1390 1389 1388
1382 1381 1380 1379 1378 1377 1377 1376 1375 1374 1373 1372 1372 1371 1371 1370 1370 1370 1370 1370 1371 1372 1373 1375 1376 1378 1380 1381 1383 1384 1385 1386 1388 1390 1391 1392 1394 1394 1395 1396 1396 1397 1398 1399 1399 1400 1401 1401 1401 1402 1403 1403 1403 1404 1404 1404 1403 1402 1402 1402 1401 1399 1399 1398 1398 1397 1397 1396 1395 1395 1395 1394 1394 1393 1393 1392 1391 1391 1390 1390 1389 1388 1388 1387 1386
1378 1377 1376 1375 1374 1373 1372 1371 1370 1369 1368 1367 1366 1366 1365 1365 1364 1364 1364 1364 1364 1365 1367 1369 1370 1372 1374 1376 1377 1379 1380 1382 1383 1385 1386 1387 1388 1389 1390 1390 1391 1392 1393 1394 1395 1396 1397 1397 1397 1398 1398 1398 1399 1399 1399 1399 1399 1398 1398 1398 1397 1396 1395 1394 1393 1393 1393 1392 1391 1391 1391 1391 1391 1390 1390 1389 1388 1388 1387 1387 1386 1386 1385 1384 1384